Content
SEND FEEDBACK

Daily
Averages
Monthly
Summary
United States of America

WILMINGTON, NORTH CAROLINA


Home > North America > United States > North Carolina
Elevation: 21 meters     Latitude: 34 16N     Longitude: 077 54W

WEATHER
 
SELECT A DAY
Number of Records: 209,164;   Date Range: 1/1/95 - 9/21/14
 
SHARE

PRINT THIS DATA

[ ← Previous Day ]
WEATHER ALMANAC - 18 JANUARY, 2013
[ Next Day → ]
[ °F ]   °C
Weather ElementAverageHighLow
Temperature5.6 °C10.6 °C (1:53 pm)1.7 °C (11:53 pm)
Dewpoint0.4 °C4 °C (1:15 am)-3.3 °C (3:53 pm)
Humidity72 %89 % (4:53 am)39 % (2:53 pm)
Barometer1028.1 hPa1033.5 hPa (7:53 pm)1018.6 hPa (1:15 am)
Wind Speed16.7 km/h31.5 km/h (1:53 am)
Wind Gust44.4 km/h (3:53 am)
Weather ElementAverage
Visibility15.3 km
Wind DirectionWSW (234.2 °)

Weather ElementTotal
Precipitation0.51 mm
Heating Degree Days12.2 (Base 18.3)
Averaged from 31 records on 18 January, 2013
WEATHER CONDITIONS BREAKOUT
WIND DIRECTION BREAKOUT
WEATHER BY HOUR - 18 JANUARY, 2013
[ °F ]   °C
Local TimeTemperatureDewpointHumidityBarometerVisibilityWind DirectionWind SpeedGust SpeedPrecipitationEventsConditions
1:15 AM6 °C4 °C87 %1018.6 hPa11.3 kmNorth (350°)27.8 km/h40.7 km/h0 mmRainLight Rain
1:22 AM6 °C4 °C87 %1019 hPa9.7 kmNNW (340°)27.8 km/h40.7 km/h0 mmRainLight Rain
1:53 AM5.6 °C3.3 °C85 %1019.3 hPa16.1 kmNorth (350°)31.5 km/h40.7 km/h0 mmRainLight Rain
2:50 AM5 °C3 °C87 %1020.3 hPa16.1 kmNorth (360°)20.4 km/h0.25 mmScattered Clouds
2:53 AM5 °C2.8 °C86 %1020.3 hPa16.1 kmNorth (350°)18.5 km/h31.5 km/h0.25 mmScattered Clouds
3:19 AM5 °C3 °C87 %1022.4 hPa16.1 kmNNW (340°)25.9 km/h38.9 km/hMostly Cloudy
3:53 AM4.4 °C2.2 °C86 %1023 hPa16.1 kmNNW (330°)27.8 km/h44.4 km/hOvercast
4:53 AM3.9 °C2.2 °C89 %1024 hPa16.1 kmNNW (330°)14.8 km/hOvercast
5:53 AM3.9 °C1.7 °C86 %1025.1 hPa16.1 kmNNW (340°)13 km/hMostly Cloudy
6:53 AM3.3 °C1.7 °C89 %1026.4 hPa16.1 kmNNW (340°)11.1 km/hMostly Cloudy
7:53 AM3.3 °C1.7 °C89 %1028.1 hPa12.9 kmNorth (350°)9.3 km/hOvercast
8:29 AM4 °C2 °C87 %1028.8 hPa12.9 kmNorth (360°)11.1 km/hOvercast
8:39 AM4 °C2 °C87 %1029.1 hPa12.9 kmNNW (330°)11.1 km/hOvercast
8:50 AM4 °C2 °C87 %1029.5 hPa14.5 kmNNW (340°)18.5 km/hMostly Cloudy
8:53 AM3.9 °C1.1 °C82 %1029.5 hPa14.5 kmNNW (330°)16.7 km/hMostly Cloudy
9:10 AM4 °C1 °C81 %1030.1 hPa16.1 kmNNW (340°)14.8 km/hPartly Cloudy
9:53 AM6.1 °C1.1 °C71 %1031.2 hPa16.1 kmNNW (340°)20.4 km/hPartly Cloudy
10:53 AM7.8 °C0 °C58 %1030.5 hPa16.1 kmNorth (10°)20.4 km/hClear
11:53 AM8.9 °C-0.6 °C52 %1030.5 hPa16.1 kmNorth (360°)20.4 km/hClear
12:53 PM10 °C-1.7 °C44 %1030.1 hPa16.1 kmNorth (10°)22.2 km/h33.3 km/hClear
1:53 PM10.6 °C-2.2 °C41 %1029.8 hPa16.1 kmNorth (360°)22.2 km/hClear
2:53 PM10.6 °C-2.8 °C39 %1030.1 hPa16.1 kmNNE (30°)20.4 km/hClear
3:53 PM10 °C-3.3 °C39 %1030.8 hPa16.1 kmNNE (30°)22.2 km/hClear
4:53 PM9.4 °C-2.8 °C43 %1031.8 hPa16.1 kmNorth (360°)9.3 km/hClear
5:53 PM6.7 °C-1.7 °C55 %1032.5 hPa16.1 kmNNE (30°)7.4 km/hClear
6:53 PM5 °C-0.6 °C67 %1033.2 hPa16.1 kmNNE (30°)7.4 km/hClear
7:53 PM3.9 °C-1.1 °C70 %1033.5 hPa16.1 kmNE (40°)7.4 km/hClear
8:53 PM3.3 °C-1.7 °C70 %1033.5 hPa16.1 kmNE (50°)9.3 km/hClear
9:53 PM3.3 °C-2.2 °C68 %1033.5 hPa16.1 kmNE (40°)11.1 km/hClear
10:53 PM3.3 °C-3.3 °C62 %1033.2 hPa16.1 kmNE (50°)11.1 km/hClear
11:53 PM1.7 °C-2.8 °C72 %1032.8 hPa16.1 kmNE (40°)9.3 km/hClear
Hourly data recorded from KILM, located 0 kilometers away from Wilmington, North Carolina







STORIES FROM OUR PARTNERS